Regional Weather Roundup
Issued by NWS Grand Forks, ND

Home | Current Version | Previous Version | Text Only | Print | Product List | Glossary Off
Versions: 1 2 3 4 5 6 7 8 9 10 11 12 13 14 15 16 17 18 19 20 21 22 23 24 25 26 27 28 29 30 31 32 33 34 35 36 37 38 39 40 41 42 43 44 45 46 47 48 49 50

000
ASUS43 KFGF 161031
RWRFGF
PRAIRIE TO PINES  WEATHER ROUNDUP
NATIONAL WEATHER SERVICE EASTERN NORTH DAKOTA/GRAND FORKS ND
500 AM CDT WED APR 16 2014

 **SATELLITE DATA USED TO AUGMENT SKY COVER AT AUTOMATED STATIONS**
 *****  WEATHER ACROSS EASTERN NORTH DAKOTA  *****

CITY           SKY/WX    TMP DP  RH WIND       PRES   REMARKS
GRAND FORKS    CLOUDY    28  14  55 E10       30.00R WCI  19
GRAND FRKS AFB CLOUDY    28  14  55 E9        30.04R WCI  19
GRAND FRKS NWS   N/A     28 N/A N/A NE9         N/A  WCI  20
DEVILS LAKE    CLOUDY    25  14  63 E17       29.99R WCI  11
FARGO          LGT SNOW  28  24  85 E13       29.96S FOG     WCI  17
WAHPETON ARPT  CLOUDY    30  23  74 E16G22    29.92S WCI  19
$$

 ***** WEATHER ACROSS CENTRAL AND WESTERN NORTH DAKOTA  *****

CITY           SKY/WX    TMP DP  RH WIND       PRES   REMARKS
BISMARCK       CLOUDY    28  20  71 E18G24    29.84R WCI  15
MINOT          LGT SNOW  23  20  88 NE14      29.96R VSB 1   WCI  11
JAMESTOWN      CLOUDY    27  24  89 E22G30    29.89R WCI  13
MINOT AFB      LGT SNOW  23  23  98 E16       29.96R VSB 3/4 WCI  10
GARRISON         N/A     25  21  85 E18G25    29.89R WCI  11
WILLISTON        N/A    N/A N/A N/A MISG      29.91R
DICKINSON      PTCLDY    24  16  71 NE10      29.78R WCI  14
HETTINGER      MOCLDY    26  17  68 NE17      29.73R WCI  13
$$

 *****  OTHER AIRPORT OBSERVATIONS IN OUR AREA  *****

CITY           SKY/WX    TMP DP  RH WIND       PRES   REMARKS
WALHALLA       FAIR      25  12  58 NE10      30.11R WCI  15
GRAFTON AIRPOR PTSUNNY   27  10  50 E13       30.07S WCI  16
VALLEY CITY AR NOT AVBL
CANDO          LGT SNOW  23  19  86 NE15G21   30.02R WCI  10
CAVALIER APRT  FAIR      25  14  63 E10       30.10R WCI  15
GWINNER        CLOUDY    30  27  86 E23       29.88S WCI  17
SHEYENNE NWR     N/A     29  26  88 E14       29.95  WCI  18
ROLLA          LGT SNOW  19  18  93 NE16      30.04R WCI   5
 ***** THE ABOVE OBSERVATIONS ARE NON NWS ARE NOT QUALITY
       CONTROLLED AND MAY MIS-REPORT RAIN FOR SNOW...
$$

  *****  WEATHER ACROSS NORTHERN MINNESOTA  *****

CITY           SKY/WX    TMP DP  RH WIND       PRES   REMARKS
FLAG ISLAND    MOCLDY    16   3  57 NE3       30.15R
WARROAD        PTCLDY    16   9  73 NE8       30.13S WCI   5
ROSEAU         PTCLDY    21  10  63 E10       30.12R WCI  10
HALLOCK        CLOUDY    25  10  54 E10       30.09S WCI  15
THF RVR FALLS  MOCLDY    25   9  50 NE12      30.05R WCI  14
BAUDETTE       PTCLDY    17   6  62 NE6       30.12R WCI   9
WASKISH        MOCLDY    19   9  63 E6        30.09S WCI  11
CROOKSTON      MOCLDY    28  10  47 E10       30.04R WCI  19
$$
  *****  WEATHER ACROSS CENTRAL AND WEST MINNESOTA  *****

CITY           SKY/WX    TMP DP  RH WIND       PRES   REMARKS
FOSSTON        CLOUDY    27   7  43 E9        30.01S WCI  17
BEMIDJI        CLOUDY    26   6  44 E8        30.02S WCI  17
PARK RAPIDS    CLOUDY    28   5  37 E12       29.98S WCI  18
ELBOW LAKE     PTSUNNY   28  24  84 E23G32    29.88F WCI  14
WADENA         LGT SNOW  23  21  93 E12G22    29.96S WCI  12
DETROIT LAKES  LGT SNOW  27  23  86 SE13G18   29.96F WCI  16
MOORHEAD       CLOUDY    28  28 100 E15       29.96S WCI  17
FERGUS FALLS   CLOUDY    27  21  80 E10G21    29.90S WCI  17
MORRIS MN      CLOUDY    28  23  80 E26G33    29.85F WCI  13
STAPLES        LGT SNOW  23  21  93 E9        29.98F VSB 3/4 WCI  13
$$
  *****  WEATHER ELSEWHERE ACROSS MINNESOTA  *****

CITY           SKY/WX    TMP DP  RH WIND       PRES   REMARKS
DULUTH         CLOUDY    24  11  57 E9        30.09R WCI  14
INTRNTL FALLS  PTCLDY    17   3  54 E7        30.13R WCI   8
ELY            MOCLDY    10   9  92 CALM      30.12R
CLOQUET        CLOUDY    25   7  46 E7        30.08S WCI  17
WHEATON        CLOUDY    32  27  80 E23G29    29.90R WCI  19
BRAINERD       CLOUDY    33  11  39 SE10G18   30.02R WCI  25
HIBBING        CLOUDY    22   7  52 E7        30.08R WCI  13
ALEXANDRIA     CLOUDY    27  22  81 E20G26    29.91F WCI  13
SAINT CLOUD    CLOUDY    28  25  86 E16G23    29.96F WCI  17
MINNEAPOLIS    CLOUDY    33  17  51 E22       29.99F WCI  21
$$

  *****  WEATHER ACROSS SOUTH DAKOTA  *****

CITY           SKY/WX    TMP DP  RH WIND       PRES   REMARKS
SIOUX FALLS    CLOUDY    42  29  59 SE14      29.63F
BROOKINGS      NOT AVBL
WATERTOWN      CLOUDY    30  20  66 E23G35    29.71S WCI  17
HURON          CLOUDY    38  26  62 E18G24    29.59S
SISSETON         N/A     30  22  72 SE21G26   29.85R WCI  17
ABERDEEN       CLOUDY    32  20  61 E25       29.75F WCI  19
MITCHELL       CLOUDY    44  29  55 SE13      29.54F
PIERRE         CLOUDY    36  26  67 NE17      29.59R
MOBRIDGE       CLOUDY    31  25  78 E18       29.64S WCI  19
RAPID CITY     CLOUDY    39  36  89 N14       29.64R
$$

  *****  SOME WEATHER IN NEARBY STATES *****

CITY           SKY/WX    TMP DP  RH WIND       PRES   REMARKS
GLASGOW MT     CLEAR     24  20  84 CALM      29.91R
GREAT FALLS MT CLOUDY    34  33  96 NW10      29.90S
CHEYENNE WY    MOCLDY    35  26  69 W17G24    29.76R WCI  25
SCOTTSBLUFF NE MOCLDY    42  34  73 NW21G31   29.72R
OMAHA NE       MOCLDY    45  29  53 S22G31    29.77F
DES MOINES IA  CLOUDY    42  26  53 S16       29.92F
DAVENPORT IA   CLEAR     33  21  61 SE14      30.14S WCI  23
CHICAGO IL     PTCLDY    27  19  72 S7        30.24R WCI  19
EAU CLAIRE WI  CLOUDY    29  24  82 E9        30.10F WCI  20
LA CROSSE WI   CLOUDY    33  17  51 SE9       30.11S
$$

  *****  SOME NATIONAL WEATHER *****

CITY           SKY/WX    TMP DP  RH WIND       PRES   REMARKS
LA GUARDIA NY  PTCLDY    33  18  53 NW18G26   30.13R WCI  22
RALEIGH NC     PTCLDY    34  21  59 N3        30.23R
ATLANTA GA     CLEAR     34  26  72 N6        30.17R
NEW ORLEANS LA CLEAR     48  34  58 E12       30.18R
OKLAHOMA CITY  MOCLDY    46  27  47 S14       29.97F
ALBUQUERQUE NM PTCLDY    45   8  22 SE7       29.89F
SALT LAKE CITY MOCLDY    45  21  38 W5        29.98R
LOS ANGELES CA CLOUDY    59  52  77 E7        29.86F
BOISE ID       FAIR      37  21  52 CALM      30.01F
SEATTLE WA     LGT RAIN  49  44  83 S13       30.07F
$$

*** WEATHER ACROSS MANITOBA...SASKATCHEWAN AND ONTARIO ***
                ***ONTARIO***

CITY           SKY/WX    TMP DP  RH WIND       PRES   REMARKS
GERALDTON      CLEAR      5  -4  66 W3        30.13R
THUNDER BAY    CLEAR      9   5  85 W3        30.21R
SIOUX LOOKOUT  PTCLDY    -4  -8  84 CALM      30.16R
TORONTO        PTCLDY    21   9  58 W9        30.32R WCI  11
BIG TROUT LK   CLEAR     -9 -13  84 NW6       30.18R WCI -23
PICKLE LAKE    NOT AVBL
DRYDEN         PTCLDY     5   0  78 NE3       30.15R
KENORA         CLEAR     14  -2  48 E7        30.15R WCI   4
$$
                *** MANITOBA***

CITY           SKY/WX    TMP DP  RH WIND       PRES   REMARKS
BRANDON        CLOUDY    18   9  68 E16       30.13R WCI   3
DAUPHIN        CLEAR     14   9  79 NE8       30.22R WCI   3
ISLAND LAKE    CLEAR      1  -8  66 W2        30.28R
PILOT MOUND      N/A     21  12  68 NE13        N/A  WCI   9
THE PAS        CLEAR      5  -6  61 NE5       30.31R WCI  -4
THOMPSON       CLEAR     -6 -11  77 N8        30.35R WCI -21
WINNIPEG       CLOUDY    18   5  57 NE10      30.18R WCI   6
LYNN LAKE      CLEAR     -6  -9  84 N6        30.36R WCI -18
CHURCHILL      CRYSTALS  -6  -9  84 NW13      30.30S WCI -25
GILLAM         PTCLDY    -9 -15  77 W7        30.31R WCI -24
$$
                ***SASKATCHEWAN***

CITY           SKY/WX    TMP DP  RH WIND       PRES   REMARKS
ESTEVAN        FLURRIES  23  19  86 E17       29.99R WCI   9
KINDERSLEY     LGT SNOW  23  21  93 E16       30.01R WCI  10
LLOYDMINSTER   CLOUDY    21  19  93 SE9       30.08R WCI  11
PRINCE ALBERT  PTCLDY    10   3  72 E6        30.19R WCI   1
REGINA         LGT SNOW  21  18  86 E15       30.04R WCI   8
YORKTON        CLOUDY    18   9  68 E8        30.14R WCI   7
N. BATTLEFORD  MOCLDY    19  14  79 E13G18    30.13R WCI   7
LA RONGE       CLEAR      7  -2  66 NE6       30.29R WCI  -3
SASKATOON      FLURRIES  21  18  86 NE10      30.12R WCI  10
SWIFT CURRENT  CLOUDY    25  23  93 E10       29.95R WCI  15
$$
NOTE: THESE ARE AUTOMATED STATIONS WITH LIMITED QUALITY CONTROL
      "FAIR" INDICATES FEW OR NO CLOUDS BELOW 12,000 FEET WITH NO
      SIGNIFICANT WEATHER AND/OR OBSTRUCTIONS TO VISIBILITY.
      SKY/WX - SKY CONDITION AND SIGNIFICANT WEATHER.
      TMP - AIR TEMPERATURE.    DP   - DEWPOINT TEMPERATURE.
      RH  - RELATIVE HUMIDITY.  PRES - PRESSURE.
      HX  - HEAT INDEX.         WCI  - WIND CHILL INDEX.
$



USA.gov is the U.S. government's official web portal to all federal, state and local government web resources and services.